DW3800 Weather Reports


time (UTC)temp
C
wind
direction
speed
KPH
gust
KPH
rain 1hr
cm
rain 24hr
cm
rain mn
cm
humidity
%
barometer
mb
20260507014954 5 222 1.6 1.6 0.00 0.00 0.00 55 1017.4
20260507014451 5 215 3.2 3.2 0.00 0.00 0.00 55 1017.2
20260507013946 5 251 3.2 3.2 0.00 0.00 0.00 54 1017.3
20260507013443 6 245 1.6 3.2 0.00 0.00 0.00 55 1017.2
20260507012941 6 249 0.0 1.6 0.00 0.00 0.00 55 1017.4
20260507012438 6 210 4.8 4.8 0.00 0.00 0.00 54 1017.3
20260507011934 6 241 3.2 4.8 0.00 0.00 0.00 54 1017.3
20260507011431 6 223 3.2 8.0 0.00 0.00 0.00 54 1017.3
20260507010926 6 228 3.2 3.2 0.00 0.00 0.00 53 1017.3
20260507010421 6 233 1.6 3.2 0.00 0.00 0.00 53 1017.3
20260507005918 6 233 3.2 4.8 0.00 0.00 0.00 52 1017.4
20260507005415 6 248 4.8 4.8 0.00 0.00 0.00 52 1017.4
20260507004912 6 273 1.6 4.8 0.00 0.00 0.00 53 1017.4
20260507004409 6 223 4.8 11.3 0.00 0.00 0.00 53 1017.3
20260507003906 6 226 4.8 8.0 0.00 0.00 0.00 53 1017.3
20260507003401 6 157 0.0 3.2 0.00 0.00 0.00 54 1017.4
20260507002857 6 236 4.8 9.7 0.00 0.00 0.00 52 1017.3
20260507002353 6 241 4.8 8.0 0.00 0.00 0.00 52 1017.5
20260507001850 6 228 4.8 8.0 0.00 0.00 0.00 53 1017.4
20260507001347 6 149 8.0 12.9 0.00 0.00 0.00 52 1017.4
20260507000844 6 215 11.3 16.1 0.00 0.00 0.00 52 1017.7
20260507000339 6 142 4.8 11.3 0.00 0.00 0.00 52 1017.5
20260506235836 6 223 1.6 9.7 0.00 0.00 0.00 53 1017.3
20260506235333 6 243 8.0 9.7 0.00 0.00 0.00 52 1017.5
20260506234828 6 281 3.2 4.8 0.00 0.00 0.00 53 1017.7
20260506234326 6 240 4.8 8.0 0.00 0.00 0.00 52 1017.6
20260506233824 6 180 4.8 11.3 0.00 0.00 0.00 52 1017.5
20260506233319 6 173 6.4 8.0 0.00 0.00 0.00 53 1017.8
20260506232817 6 186 3.2 11.3 0.00 0.00 0.00 53 1017.5
20260506232312 6 242 1.6 9.7 0.00 0.00 0.00 54 1017.6
20260506231809 6 242 6.4 9.7 0.00 0.00 0.00 52 1017.6
20260506231307 6 138 4.8 14.5 0.00 0.00 0.00 52 1017.7
20260506230804 6 209 4.8 8.0 0.00 0.00 0.00 52 1017.7
20260506230301 6 222 4.8 11.3 0.00 0.00 0.00 53 1017.5
20260506225757 6 249 8.0 14.5 0.00 0.00 0.00 52 1017.7
20260506225254 6 235 1.6 12.9 0.00 0.00 0.00 51 1017.6
20260506224751 6 239 4.8 8.0 0.00 0.00 0.00 51 1017.7
20260506224248 6 226 6.4 9.7 0.00 0.00 0.00 52 1017.9
20260506223744 6 256 3.2 4.8 0.00 0.00 0.00 53 1017.8
20260506223240 6 227 8.0 16.1 0.00 0.00 0.00 52 1017.6
20260506222737 6 210 6.4 11.3 0.00 0.00 0.00 52 1017.8
20260506222232 6 216 6.4 14.5 0.00 0.00 0.00 52 1017.9
20260506221731 6 216 9.7 16.1 0.00 0.00 0.00 52 1017.9
20260506221229 6 166 6.4 9.7 0.00 0.00 0.00 52 1017.8
20260506220726 6 249 4.8 9.7 0.00 0.00 0.00 53 1018.1
20260506220220 6 230 6.4 9.7 0.00 0.00 0.00 54 1017.8
20260506215717 6 222 3.2 11.3 0.00 0.00 0.00 53 1017.9
20260506215212 6 271 6.4 9.7 0.00 0.00 0.00 53 1017.9
20260506214709 6 208 11.3 16.1 0.00 0.00 0.00 53 1018.1
20260506214207 6 151 3.2 14.5 0.00 0.00 0.00 54 1018.0
20260506213705 6 210 9.7 14.5 0.00 0.00 0.00 53 1018.1
20260506213202 6 206 3.2 9.7 0.00 0.00 0.00 54 1018.3
20260506212659 6 181 8.0 14.5 0.00 0.00 0.00 54 1018.3
20260506212154 6 168 8.0 9.7 0.00 0.00 0.00 54 1018.2
20260506211650 6 226 8.0 12.9 0.00 0.00 0.00 53 1018.3
20260506211147 6 255 8.0 12.9 0.00 0.00 0.00 53 1018.3
20260506210643 6 201 6.4 11.3 0.00 0.00 0.00 54 1018.3
20260506210140 5 164 11.3 14.5 0.00 0.00 0.00 53 1018.3
20260506205638 6 222 6.4 11.3 0.00 0.00 0.00 53 1018.3
20260506205132 5 193 6.4 11.3 0.00 0.00 0.00 53 1018.2
20260506204631 5 170 9.7 16.1 0.00 0.00 0.00 54 1018.4
20260506204127 6 168 6.4 9.7 0.00 0.00 0.00 53 1018.3
20260506203625 6 241 1.6 9.7 0.00 0.00 0.00 53 1018.4
20260506203122 5 275 3.2 9.7 0.00 0.00 0.00 52 1018.4
20260506202620 5 205 12.9 14.5 0.00 0.00 0.00 52 1018.3
20260506202116 5 249 8.0 14.5 0.00 0.00 0.00 52 1018.6
20260506201613 6 174 3.2 4.8 0.00 0.00 0.00 53 1018.2
20260506201109 5 227 6.4 12.9 0.00 0.00 0.00 52 1018.3
20260506200606 5 243 6.4 9.7 0.00 0.00 0.00 53 1018.5
20260506195559 5 208 4.8 9.7 0.00 0.00 0.00 54 1018.3
20260506195056 5 232 4.8 11.3 0.00 0.00 0.00 54 1018.6
20260506194554 5 222 9.7 11.3 0.00 0.00 0.00 52 1018.6
20260506194049 5 228 6.4 14.5 0.00 0.00 0.00 53 1018.2
20260506193547 5 231 4.8 12.9 0.00 0.00 0.00 53 1018.4
20260506193044 5 189 1.6 17.7 0.00 0.00 0.00 53 1018.6
20260506192541 5 226 1.6 4.8 0.00 0.00 0.00 53 1018.5
20260506192037 5 212 8.0 14.5 0.00 0.00 0.00 53 1018.6
20260506191534 5 223 9.7 14.5 0.00 0.00 0.00 54 1018.6
20260506191029 5 170 12.9 17.7 0.00 0.00 0.00 53 1018.5
20260506190527 5 229 12.9 14.5 0.00 0.00 0.00 53 1018.3
20260506190024 5 280 1.6 16.1 0.00 0.00 0.00 53 1018.5
20260506185521 5 253 4.8 8.0 0.00 0.00 0.00 53 1018.4
20260506185017 5 217 8.0 16.1 0.00 0.00 0.00 53 1018.3
20260506184515 5 277 4.8 11.3 0.00 0.00 0.00 53 1018.6
20260506184012 5 214 4.8 12.9 0.00 0.00 0.00 53 1018.5
20260506183508 5 159 4.8 11.3 0.00 0.00 0.00 53 1018.8
20260506183005 5 183 4.8 11.3 0.00 0.00 0.00 53 1018.5
20260506182502 5 217 8.0 12.9 0.00 0.00 0.00 53 1018.5
20260506181959 5 150 6.4 9.7 0.00 0.00 0.00 55 1018.5
20260506181457 5 271 4.8 12.9 0.00 0.00 0.00 54 1018.8
20260506180954 5 250 1.6 12.9 0.00 0.00 0.00 55 1018.6
20260506180450 5 254 6.4 8.0 0.00 0.00 0.00 54 1018.4
20260506175947 5 210 4.8 9.7 0.00 0.00 0.00 56 1018.8
20260506175444 5 251 4.8 25.7 0.00 0.00 0.00 55 1018.9
20260506174940 5 161 4.8 12.9 0.00 0.00 0.00 55 1018.8
20260506174438 5 222 8.0 12.9 0.00 0.00 0.00 56 1018.8
20260506173934 5 204 9.7 16.1 0.00 0.00 0.00 54 1018.6
20260506173431 5 239 3.2 3.2 0.00 0.00 0.00 55 1018.9
20260506172923 5 218 6.4 11.3 0.00 0.00 0.00 55 1018.9
20260506172420 4 180 4.8 11.3 0.00 0.00 0.00 56 1018.8
20260506171917 4 221 4.8 16.1 0.00 0.00 0.00 55 1018.8
20260506171414 4 238 8.0 16.1 0.00 0.00 0.00 56 1018.8
20260506170912 4 170 12.9 16.1 0.00 0.00 0.00 54 1018.8
20260506170407 4 253 8.0 12.9 0.00 0.00 0.00 55 1018.9
20260506165901 4 211 4.8 20.9 0.00 0.00 0.00 55 1019.0
20260506165359 4 249 8.0 14.5 0.00 0.00 0.00 54 1019.0
20260506164855 4 245 6.4 9.7 0.00 0.00 0.00 54 1018.9
20260506164351 4 111 1.6 11.3 0.00 0.00 0.00 56 1018.9
20260506163849 4 234 11.3 20.9 0.00 0.00 0.00 55 1018.9
20260506163344 4 249 8.0 25.7 0.00 0.00 0.00 55 1018.9
20260506162839 3 259 1.6 12.9 0.00 0.00 0.00 55 1018.8
20260506162337 4 242 8.0 20.9 0.00 0.00 0.00 55 1019.0
20260506161829 3 229 6.4 16.1 0.00 0.00 0.00 56 1018.8
20260506161326 3 238 6.4 12.9 0.00 0.00 0.00 57 1018.9
20260506160823 3 149 6.4 20.9 0.00 0.00 0.00 57 1019.0
20260506160320 3 236 11.3 12.9 0.00 0.00 0.00 57 1018.9
20260506155818 4 219 1.6 9.7 0.00 0.00 0.00 57 1018.8
20260506155314 4 189 4.8 11.3 0.00 0.00 0.00 56 1018.9
20260506153427 4 218 4.8 17.7 0.00 0.00 0.00 56 1018.8
20260506152925 4 254 8.0 8.0 0.00 0.00 0.00 54 1018.8
20260506152421 4 236 6.4 16.1 0.00 0.00 0.00 54 1018.8
20260506151920 4 192 9.7 12.9 0.00 0.00 0.00 54 1018.6
20260506151417 4 109 4.8 9.7 0.00 0.00 0.00 55 1018.5
20260506150914 4 202 8.0 16.1 0.00 0.00 0.00 55 1018.6
20260506150410 4 186 8.0 24.1 0.00 0.00 0.00 55 1018.6
20260506145908 4 225 8.0 16.1 0.00 0.00 0.00 54 1018.9
20260506145403 4 198 11.3 24.1 0.00 0.00 0.00 56 1018.9
20260506144901 4 244 3.2 11.3 0.00 0.00 0.00 55 1018.6
20260506144357 4 198 11.3 24.1 0.00 0.00 0.00 54 1018.6
20260506143856 4 288 4.8 14.5 0.00 0.00 0.00 56 1018.8
20260506143352 4 214 11.3 16.1 0.00 0.00 0.00 55 1018.8
20260506142851 4 235 14.5 20.9 0.00 0.00 0.00 55 1018.6
20260506142348 4 255 1.6 9.7 0.00 0.00 0.00 57 1018.6
20260506141847 4 265 4.8 8.0 0.00 0.00 0.00 55 1018.6
20260506141344 4 271 3.2 16.1 0.00 0.00 0.00 55 1018.6
20260506140842 4 230 4.8 12.9 0.00 0.00 0.00 56 1018.6
20260506140339 3 229 6.4 16.1 0.00 0.00 0.00 57 1018.8
20260506135836 3 321 4.8 14.5 0.00 0.00 0.00 58 1018.6
20260506135332 4 200 8.0 16.1 0.00 0.00 0.00 58 1018.6
20260506134829 3 168 3.2 9.7 0.00 0.00 0.00 59 1018.3
20260506134325 3 199 6.4 14.5 0.00 0.00 0.00 60 1018.4
20260506133823 3 229 9.7 12.9 0.00 0.00 0.00 59 1018.5
20260506133319 3 305 4.8 9.7 0.00 0.00 0.00 59 1018.3
20260506132816 3 200 4.8 12.9 0.00 0.00 0.00 60 1018.4
20260506132313 3 9 1.6 12.9 0.00 0.00 0.00 60 1018.4
20260506131811 3 183 3.2 12.9 0.00 0.00 0.00 61 1018.2
20260506131307 3 190 4.8 8.0 0.00 0.00 0.00 60 1018.1
20260506130804 3 263 4.8 11.3 0.00 0.00 0.00 61 1018.1
20260506130300 3 36 0.0 3.2 0.00 0.00 0.00 62 1018.0
20260506125759 2 214 6.4 8.0 0.00 0.00 0.00 64 1018.1
20260506125256 2 283 4.8 11.3 0.00 0.00 0.00 64 1018.0
20260506124755 2 234 6.4 9.7 0.00 0.00 0.00 64 1017.7
20260506124252 2 266 3.2 4.8 0.00 0.00 0.00 65 1017.9
20260506123749 2 24 1.6 3.2 0.00 0.00 0.00 67 1018.0
20260506123248 1 307 0.0 1.6 0.00 0.00 0.00 68 1017.9
20260506122744 1 248 1.6 3.2 0.00 0.00 0.00 68 1018.0
20260506122241 1 262 1.6 3.2 0.00 0.00 0.00 69 1018.0
20260506121739 1 217 6.4 9.7 0.00 0.00 0.00 68 1017.8
20260506121236 1 186 3.2 8.0 0.00 0.00 0.00 68 1017.7
20260506120733 1 236 3.2 8.0 0.00 0.00 0.00 69 1017.7
20260506120231 1 340 3.2 4.8 0.00 0.00 0.00 69 1017.7
20260506115729 0 206 4.8 4.8 0.00 0.00 0.00 71 1017.4
20260506115227 0 213 0.0 3.2 0.00 0.00 0.00 72 1017.5
20260506114724 0 252 1.6 3.2 0.00 0.00 0.00 73 1017.2
20260506114221 0 198 0.0 3.2 0.00 0.00 0.00 73 1017.4
20260506113720 0 223 3.2 4.8 0.00 0.00 0.00 73 1017.2
20260506113217 0 210 6.4 8.0 0.00 0.00 0.00 74 1017.0
20260506112713 0 264 0.0 1.6 0.00 0.00 0.00 75 1017.0
20260506112211 0 259 0.0 1.6 0.00 0.00 0.00 75 1016.9
20260506111708 0 235 0.0 1.6 0.00 0.00 0.00 75 1017.1
20260506111206 0 250 1.6 1.6 0.00 0.00 0.00 75 1017.3
20260506110703 0 224 1.6 1.6 0.00 0.00 0.00 73 1017.3
20260506110201 0 244 1.6 3.2 0.00 0.00 0.00 73 1017.5
20260506105657 0 232 1.6 3.2 0.00 0.00 0.00 74 1017.3
20260506105154 0 236 0.0 3.2 0.00 0.00 0.00 74 1017.3
20260506104652 0 235 1.6 3.2 0.00 0.00 0.00 74 1017.2
20260506104149 0 242 1.6 3.2 0.00 0.00 0.00 74 1017.2
20260506103646 0 203 1.6 3.2 0.00 0.00 0.00 75 1017.2
20260506103143 0 212 1.6 1.6 0.00 0.00 0.00 76 1016.9
20260506102642 0 201 1.6 1.6 0.00 0.00 0.00 74 1016.9
20260506102138 0 214 0.0 4.8 0.00 0.00 0.00 73 1016.9
20260506101635 0 237 0.0 3.2 0.00 0.00 0.00 73 1016.7
20260506101132 0 219 1.6 3.2 0.00 0.00 0.00 74 1016.9
20260506100631 0 229 1.6 3.2 0.00 0.00 0.00 74 1016.9
20260506100128 0 226 1.6 3.2 0.00 0.00 0.00 74 1017.0
20260506095627 0 215 1.6 3.2 0.00 0.00 0.00 75 1016.8
20260506095123 0 222 1.6 3.2 0.00 0.00 0.00 74 1016.7
20260506094620 0 246 3.2 3.2 0.00 0.00 0.00 74 1016.7
20260506094118 0 235 1.6 1.6 0.00 0.00 0.00 75 1016.8
20260506093616 0 245 1.6 1.6 0.00 0.00 0.00 76 1016.5
20260506093113 0 226 0.0 1.6 0.00 0.00 0.00 76 1016.9
20260506092611 0 259 0.0 0.0 0.00 0.00 0.00 76 1016.9
20260506092108 0 241 0.0 1.6 0.00 0.00 0.00 77 1017.1
20260506091606 0 232 0.0 1.6 0.00 0.00 0.00 77 1016.9
20260506091103 0 202 0.0 1.6 0.00 0.00 0.00 77 1016.9
20260506090601 0 191 0.0 1.6 0.00 0.00 0.00 76 1017.0
20260506090057 0 191 1.6 1.6 0.00 0.00 0.00 75 1016.7
20260506085554 0 232 0.0 0.0 0.00 0.00 0.00 75 1016.6
20260506085050 0 222 0.0 0.0 0.00 0.00 0.00 75 1016.5
20260506084547 0 235 0.0 0.0 0.00 0.00 0.00 74 1016.5
20260506084043 0 253 0.0 1.6 0.00 0.00 0.00 74 1016.4
20260506083541 0 235 0.0 0.0 0.00 0.00 0.00 74 1016.6
20260506083038 0 240 1.6 1.6 0.00 0.00 0.00 73 1016.6
20260506082535 0 222 1.6 1.6 0.00 0.00 0.00 73 1016.8
20260506082030 0 222 0.0 1.6 0.00 0.00 0.00 74 1016.8
20260506081529 0 214 0.0 1.6 0.00 0.00 0.00 75 1016.6
20260506081026 0 242 1.6 3.2 0.00 0.00 0.00 76 1016.7
20260506080523 0 202 1.6 1.6 0.00 0.00 0.00 76 1016.5
20260506073507 0 214 0.0 1.6 0.00 0.00 0.00 73 1016.3
20260506073004 0 202 0.0 1.6 0.00 0.00 0.00 73 1016.5
20260506072501 0 260 1.6 1.6 0.00 0.00 0.00 73 1016.3
20260506071959 0 256 0.0 0.0 0.00 0.00 0.00 72 1016.3
20260506071456 1 242 0.0 1.6 0.00 0.00 0.00 72 1016.1
20260506070953 1 233 1.6 1.6 0.00 0.00 0.00 71 1016.1
20260506070450 1 201 0.0 1.6 0.00 0.00 0.00 70 1016.4
20260506062428 1 196 1.6 3.2 0.00 0.00 0.00 68 1016.1
20260506061924 2 209 0.0 1.6 0.00 0.00 0.00 68 1016.2
20260506061420 1 229 4.8 8.0 0.00 0.00 0.00 68 1016.1
20260506060918 1 252 0.0 1.6 0.00 0.00 0.00 70 1016.2
20260506060416 1 240 0.0 0.0 0.00 0.00 0.00 69 1016.2
20260506051348 3 26 3.2 3.2 0.00 0.00 0.00 62 1015.9
20260506050845 3 234 1.6 3.2 0.00 0.00 0.00 62 1015.6
20260506050343 3 254 1.6 4.8 0.00 0.00 0.00 61 1015.6
20260506044833 3 258 4.8 8.0 0.00 0.00 0.00 60 1015.4
20260506044331 3 240 0.0 4.8 0.00 0.00 0.00 59 1015.5
20260506043828 3 167 1.6 3.2 0.00 0.00 0.00 60 1015.5
20260506043325 3 225 0.0 4.8 0.00 0.00 0.00 60 1015.5
20260506042823 3 188 4.8 11.3 0.00 0.00 0.00 58 1015.5
20260506042322 3 190 1.6 11.3 0.00 0.00 0.00 59 1015.5
20260506041821 3 235 1.6 8.0 0.00 0.00 0.00 59 1015.6
20260506041317 3 256 3.2 8.0 0.00 0.00 0.00 59 1015.2
20260506040814 4 206 0.0 1.6 0.00 0.00 0.00 59 1015.5
20260506040312 4 227 4.8 8.0 0.00 0.00 0.00 58 1015.5
20260506035808 4 265 4.8 8.0 0.00 0.00 0.00 58 1015.4
20260506035306 4 263 4.8 11.3 0.00 0.00 0.00 57 1015.1
20260506034803 4 202 6.4 11.3 0.00 0.00 0.00 57 1015.2
20260506034259 4 168 3.2 4.8 0.00 0.00 0.00 58 1015.4
20260506033756 5 190 1.6 4.8 0.00 0.00 0.00 57 1015.4
20260506033253 5 251 3.2 8.0 0.00 0.00 0.00 57 1015.1
20260506032750 5 252 1.6 14.5 0.00 0.00 0.00 56 1015.1
20260506032247 5 217 4.8 12.9 0.00 0.00 0.00 56 1015.0
20260506031744 5 223 6.4 14.5 0.00 0.00 0.00 56 1015.2
20260506031241 5 257 3.2 9.7 0.00 0.00 0.00 56 1015.1
20260506030739 5 211 8.0 12.9 0.00 0.00 0.00 56 1015.2
20260506030237 5 191 3.2 9.7 0.00 0.00 0.00 55 1015.4
20260506025733 5 199 3.2 11.3 0.00 0.00 0.00 55 1014.8
20260506025230 5 255 3.2 3.2 0.00 0.00 0.00 55 1014.9
20260506024726 5 214 0.0 3.2 0.00 0.00 0.00 55 1014.8
20260506024223 5 240 8.0 9.7 0.00 0.00 0.00 54 1014.7
20260506023720 5 11 1.6 9.7 0.00 0.00 0.00 54 1014.7
20260506023217 6 220 0.0 4.8 0.00 0.00 0.00 54 1014.8
20260506022713 6 215 3.2 9.7 0.00 0.00 0.00 52 1014.7
20260506022211 6 190 6.4 8.0 0.00 0.00 0.00 52 1014.3
20260506021709 6 212 6.4 11.3 0.00 0.00 0.00 52 1014.3
20260506021206 6 186 4.8 9.7 0.00 0.00 0.00 52 1014.1
20260506020703 6 239 8.0 14.5 0.00 0.00 0.00 51 1014.2
20260506020201 6 251 8.0 12.9 0.00 0.00 0.00 51 1013.9
20260506015658 6 249 6.4 12.9 0.00 0.00 0.00 51 1013.7